SCP
2 0 0 0 0 0 0 0 1 1 0 0 1 1 0 1 0 0 0 0 0 0 0 0 0 0 0 0 0 0 0 0 0 0 0 0 0 0 0 0 0 0 0
1 1 0 0 0 0 0 0 1 2 1 1 1 0 0 0 0 0 0 0 0 0 0 0 0 0 0 0 0 0 0 0 0 0 0 0 0 0 0 0 0 0 0
1 0 0 0 0 0 0 2 1 1 0 0 0 0 0 0 0 0 0 0 0 0 0 0 0 0 0 0 0 0 0 0 0 0 0 0 0 0 0 0 0 0 0
1 1 1 1 0 1 1 0 0 0 0 0 0 0 0 0 0 0 0 0 0 0 0 0 0 0 0 0 0 0 0 0 0 0 0 0 0 0 0 0 0 0 0
1 2 1 1 1 1 0 0 0 0 0 0 0 0 0 0 0 0 0 0 0 0 0 0 0 0 0 0 0 0 0 0 0 0 0 0 0 0 0 0 0 0 0
1 1 1 0 0 0 0 0 0 0 0 0 0 0 0 0 0 0 0 0 0 0 0 0 0 0 0 0 0 0 0 0 0 0 0 0 0 0 0 0 0 0 0
0 0 0 0 0 0 0 0 0 0 0 0 0 0 0 0 0 0 0 0 0 0 0 0 0 0 0 0 0 0 0 0 0 0 0 0 0 0 0 0 0 0 0
0 0 0 0 0 0 0 0 0 0 0 0 0 0 0 0 0 0 0 0 0 0 0 0 0 0 0 0 0 0 0 0 0 0 0 0 0 0 0 0 0 0 0
0 0 0 0 0 0 0 0 0 0 0 0 0 0 0 0 0 0 0 0 0 0 0 0 0 0 0 0 0 0 0 0 0 0 -0 0 -0 0 0 0 0 0 0
0 0 0 0 0 0 0 0 0 0 0 0 0 0 0 0 0 0 0 0 0 0 0 0 0 0 0 0 0 0 0 0 0 0 0 0 0 0 0 0 0 0 0
0 0 0 0 0 0 0 0 0 0 0 0 0 0 0 0 0 0 0 0 0 0 0 0 0 0 0 0 0 0 0 0 0 0 0 0 0 0 0 0 0 0 0
-0 0 0 0 0 0 0 0 0 0 0 0 0 0 0 0 0 -0 -0 0 0 0 0 0 0 0 0 0 0 0 0 0 0 0 0 0 0 0 0 0 0 0 0
0 0 0 0 0 0 0 0 0 0 0 0 0 0 0 0 0 0 0 0 -0 0 0 0 0 0 0 0 0 0 0 0 0 0 -0 0 0 0 0 0 0 0 0
0 0 0 0 0 0 0 0 0 0 0 0 0 0 0 0 0 0 0 0 0 0 0 0 0 0 0 0 0 0 0 0 0 0 0 0 0 0 0 -0 -0 -0 0
0 0 0 0 0 0 0 0 0 0 0 0 0 0 0 0 0 0 0 0 0 0 0 0 -0 0 0 0 0 0 0 0 0 0 0 0 0 0 0 -0 -0 0 0
0 0 0 0 0 0 0 0 0 0 0 0 0 0 0 0 0 0 0 0 0 0 0 0 0 0 0 0 0 0 0 0 0 0 0 -0 -0 -0 -0 -0 -0 0 0
0 0 0 0 0 0 0 0 0 0 0 0 0 0 0 0 0 0 0 0 -0 0 0 0 0 0 0 0 0 0 0 0 0 0 -0 -0 -0 -0 0 0 0 0 -0
0 0 0 0 0 0 0 0 0 0 0 0 0 0 0 0 0 0 0 0 0 0 0 0 0 0 0 0 0 0 0 -0 0 0 -0 -0 -0 0 0 0 0 0 0
0 0 0 0 0 0 0 0 0 0 0 0 0 0 0 0 0 0 0 0 0 0 0 0 0 0 0 0 0 0 0 -0 -0 0 0 -0 0 0 -0 0 0 -0 -0
0 0 0 0 0 0 0 0 0 0 0 0 0 0 0 0 0 0 0 0 0 0 0 0 0 0 0 0 0 0 0 0 0 -0 0 0 0 0 0 0 0 -0 -0
0 0 0 0 0 0 0 0 0 0 0 0 0 0 0 0 0 0 0 0 0 0 0 0 0 0 0 0 0 0 0 0 0 0 0 0 0 0 0 0 0 -0 -0
0 0 0 0 0 0 0 0 0 0 0 0 0 0 0 0 0 0 0 0 0 0 0 0 0 0 0 0 0 0 0 0 0 0 0 0 0 0 0 0 0 0 0
0 0 0 0 0 0 0 0 0 0 0 0 0 0 0 0 0 0 0 0 0 0 0 0 0 0 0 0 0 0 0 0 0 -0 0 0 0 0 0 0 0 0 0
0 0 0 0 0 0 0 0 0 0 0 0 0 0 0 0 0 0 0 0 0 0 0 0 0 0 0 0 -0 0 0 0 0 -0 -0 0 0 0 0 0 0 0 0
0 0 0 0 0 0 0 0 0 0 0 0 0 0 0 0 0 0 0 0 0 0 0 0 0 -0 0 -0 -0 0 0 0 0 -0 -0 -0 0 0 0 0 0 0 0
0 0 0 0 0 0 0 0 0 0 0 0 0 0 0 0 0 0 0 0 0 0 0 0 0 -0 -0 -0 0 0 0 0 0 -0 -0 -0 -0 -0 0 -0 0 0 0
Wind_Speed_500mb
67 64 63 60 64 56 44 49 76 42 40 31 15 11 10 10 7 6 5 8 8 12 15 13 14 17 21 24 27 31 34 39 39 40 39 46 52 50 45 45 44 49 45
60 50 39 54 60 58 64 53 33 33 29 19 11 9 13 11 3 1 1 13 7 7 12 20 24 26 29 35 33 34 33 30 40 46 44 46 49 56 53 53 56 52 52
29 38 40 41 42 53 49 25 19 16 14 18 23 21 12 7 4 7 7 5 9 12 21 26 32 40 41 37 38 43 49 47 44 52 55 55 56 52 54 48 46 45 39
18 7 4 5 7 8 12 13 16 22 26 23 16 11 6 2 6 10 9 7 14 25 31 39 39 42 41 42 41 46 47 55 54 51 48 47 44 47 48 43 40 34 37
17 10 7 11 15 18 22 29 34 26 21 16 10 8 6 10 15 13 16 20 32 37 34 37 38 41 42 44 41 43 43 45 48 44 50 51 49 48 53 50 46 42 48
30 32 28 29 33 35 35 34 29 28 21 9 5 7 16 19 25 29 32 37 38 39 38 40 47 44 42 39 36 36 29 36 40 42 45 42 50 54 55 59 61 61 66
39 29 25 27 22 19 17 10 5 18 19 22 24 16 18 22 26 31 36 38 41 37 38 49 48 40 44 43 33 33 41 40 34 42 47 47 48 51 53 54 58 61 64
10 5 12 6 7 10 11 3 6 3 5 7 13 16 21 25 32 35 36 38 38 38 42 38 41 35 39 35 32 41 42 41 38 40 44 42 49 49 53 53 53 54 52
17 25 24 21 23 18 12 12 12 7 2 12 18 18 23 26 27 29 32 35 39 35 37 32 35 38 28 30 29 35 40 45 41 42 44 47 61 50 49 45 39 38 42
27 27 20 24 22 20 15 12 5 3 9 6 19 22 20 22 28 28 33 27 22 32 27 30 36 28 26 32 39 37 41 44 42 50 48 43 36 46 37 34 38 40 38
14 23 18 12 4 4 3 4 8 9 14 20 19 19 23 20 28 28 31 32 34 36 21 33 32 34 43 40 36 39 38 40 50 49 50 45 40 31 30 31 36 33 45
16 20 12 15 20 13 13 8 12 13 13 12 18 19 20 20 25 29 32 38 41 38 29 34 33 29 31 39 40 36 32 38 42 46 44 42 38 32 36 42 46 43 47
17 14 15 8 6 8 10 11 13 18 19 22 25 4 9 20 19 22 25 29 36 32 27 30 37 28 25 25 30 34 35 37 41 46 47 38 43 51 50 48 50 49 50
1 11 8 8 9 11 12 12 13 13 17 7 5 7 12 8 11 27 32 31 27 26 27 29 31 25 23 28 27 31 34 37 38 34 40 45 44 47 44 45 50 57 59
11 9 6 14 10 10 9 15 10 11 11 6 10 8 7 5 19 24 24 27 24 23 21 32 41 39 38 38 34 37 38 42 42 37 39 44 48 48 53 62 57 44 42
5 8 13 10 12 12 11 10 14 13 6 7 4 4 2 6 18 18 17 28 19 10 16 26 38 37 33 40 44 48 48 46 46 39 42 47 54 51 62 65 40 35 32
13 8 9 12 9 11 11 12 9 12 9 7 5 1 3 13 16 15 18 25 24 15 18 28 28 32 33 38 38 43 50 51 43 37 43 53 61 61 48 52 38 23 21
13 16 13 14 14 17 17 11 14 8 10 7 7 5 7 13 20 11 14 23 33 28 29 29 30 28 39 36 40 45 49 64 43 40 56 62 64 52 48 42 28 11 8
16 15 13 13 10 16 13 12 14 8 6 5 9 13 21 13 15 16 6 18 24 29 31 33 33 31 31 33 42 44 48 63 47 36 57 56 58 46 48 40 22 21 24
17 16 22 14 14 10 13 13 16 12 9 10 14 19 14 21 19 13 8 12 18 22 25 30 36 35 33 33 36 47 49 63 47 41 55 51 48 43 43 46 30 31 19
13 12 13 11 11 15 17 8 12 20 16 17 18 14 16 19 19 8 13 17 18 17 21 19 33 38 34 38 40 40 44 56 44 36 53 49 39 37 41 40 39 36 31
13 8 5 8 7 17 12 11 13 18 18 21 21 15 10 14 15 12 16 18 14 15 21 26 24 25 36 40 38 38 46 52 42 33 48 42 37 33 32 32 40 42 35
14 9 9 17 9 13 15 13 19 16 14 14 18 21 19 19 19 17 16 20 20 24 23 26 27 27 21 34 30 30 39 51 42 29 30 30 36 22 29 31 34 34 35
11 15 15 15 14 15 14 14 14 18 15 17 19 20 20 16 17 23 24 22 24 26 30 29 19 16 20 30 34 29 36 46 35 23 22 33 18 36 14 23 30 28 34
14 15 14 15 13 15 13 13 14 15 16 16 16 20 20 18 15 20 24 22 17 16 15 17 18 18 13 24 28 25 34 40 28 20 24 25 24 23 23 11 13 17 14
17 16 16 14 15 15 16 16 16 17 17 19 17 22 22 21 21 29 26 28 26 24 20 13 13 11 20 22 21 23 32 35 23 22 20 21 19 18 21 19 8 21 9
Wind_Direction_500mb
195 209 217 207 190 196 224 242 284 263 268 268 268 217 224 195 166 131 25 4 249 268 296 310 294 300 307 295 285 293 296 292 299 292 282 284 292 291 292 290 292 287 292
203 201 204 202 211 221 244 277 260 254 242 227 224 163 103 88 78 300 289 255 269 300 302 297 296 294 293 298 295 291 294 300 298 306 304 296 297 294 291 292 287 286 281
181 183 190 209 233 246 267 237 250 232 161 120 103 95 113 166 330 276 237 260 318 326 308 302 295 295 292 292 290 294 289 290 292 298 300 296 293 292 289 294 294 285 286
162 199 226 182 97 140 187 195 139 119 100 123 110 110 87 343 244 258 242 294 292 293 294 299 304 312 304 297 295 299 294 296 293 292 294 295 299 296 299 304 289 288 274
134 138 110 103 107 111 119 112 100 102 102 86 81 58 335 316 307 277 253 294 313 299 299 313 309 303 304 306 298 296 295 303 307 304 296 294 298 299 293 299 302 295 284
85 77 93 112 116 118 119 119 123 113 115 113 63 335 323 302 298 305 299 299 300 299 307 309 307 309 303 296 294 292 301 319 314 308 308 303 293 292 292 293 289 289 293
89 92 72 75 93 106 119 156 260 293 293 272 298 307 292 300 300 297 297 295 301 303 311 310 303 302 307 302 303 303 310 307 305 304 306 303 302 311 314 297 291 288 286
95 162 194 27 19 357 338 329 143 84 191 309 300 294 296 301 301 301 301 304 307 313 320 317 306 311 301 294 289 299 305 305 294 303 294 301 307 307 307 307 295 296 303
111 110 107 79 64 51 57 75 90 66 318 298 305 315 327 316 315 316 318 327 322 313 313 320 317 313 300 300 306 303 305 307 314 302 302 295 300 292 297 300 312 306 301
120 119 112 77 89 97 82 72 77 329 316 319 328 330 321 329 334 348 354 355 332 315 330 325 321 328 307 305 311 312 301 318 321 312 306 306 301 305 297 303 304 300 310
131 116 99 105 159 201 237 333 1 1 332 339 331 337 341 358 356 15 12 3 357 350 341 340 334 331 320 323 314 308 310 314 313 320 319 308 305 317 311 315 304 293 305
87 107 124 123 101 63 54 48 355 350 341 19 46 16 337 347 33 21 10 359 348 347 344 332 322 319 332 321 323 319 301 304 306 314 319 326 319 316 309 312 308 297 302
145 100 101 82 37 56 8 340 315 338 341 326 327 321 37 57 35 11 357 343 340 358 344 343 354 334 329 349 350 333 325 331 333 329 329 316 315 312 308 306 308 302 305
232 101 85 46 30 343 353 25 17 17 16 65 63 84 84 70 16 16 24 26 13 7 25 33 346 336 336 347 347 3 349 339 332 321 322 316 309 313 314 317 311 305 306
118 88 39 354 314 4 351 9 335 332 353 137 106 90 90 11 6 20 22 12 19 4 16 2 6 6 5 4 360 346 346 351 347 341 331 338 336 325 311 316 316 307 302
3 337 329 354 5 33 348 34 6 3 44 132 141 138 298 336 5 15 354 354 1 20 19 3 6 6 359 1 358 360 5 357 358 351 344 339 338 326 318 318 320 308 304
346 347 9 32 57 36 19 5 35 64 98 87 54 284 291 302 344 12 2 5 7 38 25 7 4 10 2 355 3 350 353 357 353 358 350 351 339 331 334 327 322 301 289
51 55 69 64 48 76 61 50 57 36 343 291 263 283 297 315 341 343 25 25 17 19 12 10 2 2 357 6 0 352 352 350 358 0 354 351 356 354 356 2 355 323 200
75 70 72 76 53 41 40 50 35 11 30 342 252 298 335 311 320 316 342 351 357 4 8 9 7 4 6 353 358 2 350 353 1 3 360 1 1 5 9 22 32 69 118
90 90 73 65 51 49 31 27 359 357 4 333 325 321 336 332 314 325 335 355 354 356 357 0 7 7 2 2 3 358 351 355 3 4 6 12 5 18 29 32 39 56 91
83 70 46 37 31 2 358 335 346 344 18 30 29 21 11 9 345 11 12 355 359 349 345 350 1 9 4 357 360 1 344 352 4 8 14 20 12 29 33 35 37 43 67
87 93 61 44 24 21 32 20 54 37 41 32 35 26 6 359 16 16 14 27 7 343 334 342 342 346 358 3 358 354 342 358 4 16 20 25 32 43 45 45 45 57 67
80 75 60 38 35 45 71 74 62 47 42 27 19 16 8 4 1 341 335 328 339 341 351 358 352 352 357 2 344 340 348 1 3 13 25 24 31 44 42 45 59 65 69
71 73 78 78 52 71 59 49 38 31 32 31 8 18 12 359 337 347 342 329 316 315 317 312 330 353 5 348 332 354 3 3 4 17 17 28 29 25 37 63 82 77 74
82 76 74 61 66 54 51 52 46 32 31 22 25 15 9 7 350 329 323 330 339 337 322 334 328 332 342 330 352 7 9 11 16 28 24 32 29 23 50 68 48 24 77
77 80 76 74 67 63 60 53 53 46 36 34 27 19 17 14 5 12 12 9 11 11 4 345 10 342 328 346 13 16 13 20 38 34 22 41 44 11 24 31 347 28 134
Wind_Speed_850mb
67 64 63 60 64 56 44 49 76 42 40 31 15 11 10 10 7 6 5 8 8 12 15 13 14 17 21 24 27 31 34 39 39 40 39 46 52 50 45 45 44 49 45
60 50 39 54 60 58 64 53 33 33 29 19 11 9 13 11 3 1 1 13 7 7 12 20 24 26 29 35 33 34 33 30 40 46 44 46 49 56 53 53 56 52 52
29 38 40 41 42 53 49 25 19 16 14 18 23 21 12 7 4 7 7 5 9 12 21 26 32 40 41 37 38 43 49 47 44 52 55 55 56 52 54 48 46 45 39
18 7 4 5 7 8 12 13 16 22 26 23 16 11 6 2 6 10 9 7 14 25 31 39 39 42 41 42 41 46 47 55 54 51 48 47 44 47 48 43 40 34 37
17 10 7 11 15 18 22 29 34 26 21 16 10 8 6 10 15 13 16 20 32 37 34 37 38 41 42 44 41 43 43 45 48 44 50 51 49 48 53 50 46 42 48
30 32 28 29 33 35 35 34 29 28 21 9 5 7 16 19 25 29 32 37 38 39 38 40 47 44 42 39 36 36 29 36 40 42 45 42 50 54 55 59 61 61 66
39 29 25 27 22 19 17 10 5 18 19 22 24 16 18 22 26 31 36 38 41 37 38 49 48 40 44 43 33 33 41 40 34 42 47 47 48 51 53 54 58 61 64
10 5 12 6 7 10 11 3 6 3 5 7 13 16 21 25 32 35 36 38 38 38 42 38 41 35 39 35 32 41 42 41 38 40 44 42 49 49 53 53 53 54 52
17 25 24 21 23 18 12 12 12 7 2 12 18 18 23 26 27 29 32 35 39 35 37 32 35 38 28 30 29 35 40 45 41 42 44 47 61 50 49 45 39 38 42
27 27 20 24 22 20 15 12 5 3 9 6 19 22 20 22 28 28 33 27 22 32 27 30 36 28 26 32 39 37 41 44 42 50 48 43 36 46 37 34 38 40 38
14 23 18 12 4 4 3 4 8 9 14 20 19 19 23 20 28 28 31 32 34 36 21 33 32 34 43 40 36 39 38 40 50 49 50 45 40 31 30 31 36 33 45
16 20 12 15 20 13 13 8 12 13 13 12 18 19 20 20 25 29 32 38 41 38 29 34 33 29 31 39 40 36 32 38 42 46 44 42 38 32 36 42 46 43 47
17 14 15 8 6 8 10 11 13 18 19 22 25 4 9 20 19 22 25 29 36 32 27 30 37 28 25 25 30 34 35 37 41 46 47 38 43 51 50 48 50 49 50
1 11 8 8 9 11 12 12 13 13 17 7 5 7 12 8 11 27 32 31 27 26 27 29 31 25 23 28 27 31 34 37 38 34 40 45 44 47 44 45 50 57 59
11 9 6 14 10 10 9 15 10 11 11 6 10 8 7 5 19 24 24 27 24 23 21 32 41 39 38 38 34 37 38 42 42 37 39 44 48 48 53 62 57 44 42
5 8 13 10 12 12 11 10 14 13 6 7 4 4 2 6 18 18 17 28 19 10 16 26 38 37 33 40 44 48 48 46 46 39 42 47 54 51 62 65 40 35 32
13 8 9 12 9 11 11 12 9 12 9 7 5 1 3 13 16 15 18 25 24 15 18 28 28 32 33 38 38 43 50 51 43 37 43 53 61 61 48 52 38 23 21
13 16 13 14 14 17 17 11 14 8 10 7 7 5 7 13 20 11 14 23 33 28 29 29 30 28 39 36 40 45 49 64 43 40 56 62 64 52 48 42 28 11 8
16 15 13 13 10 16 13 12 14 8 6 5 9 13 21 13 15 16 6 18 24 29 31 33 33 31 31 33 42 44 48 63 47 36 57 56 58 46 48 40 22 21 24
17 16 22 14 14 10 13 13 16 12 9 10 14 19 14 21 19 13 8 12 18 22 25 30 36 35 33 33 36 47 49 63 47 41 55 51 48 43 43 46 30 31 19
13 12 13 11 11 15 17 8 12 20 16 17 18 14 16 19 19 8 13 17 18 17 21 19 33 38 34 38 40 40 44 56 44 36 53 49 39 37 41 40 39 36 31
13 8 5 8 7 17 12 11 13 18 18 21 21 15 10 14 15 12 16 18 14 15 21 26 24 25 36 40 38 38 46 52 42 33 48 42 37 33 32 32 40 42 35
14 9 9 17 9 13 15 13 19 16 14 14 18 21 19 19 19 17 16 20 20 24 23 26 27 27 21 34 30 30 39 51 42 29 30 30 36 22 29 31 34 34 35
11 15 15 15 14 15 14 14 14 18 15 17 19 20 20 16 17 23 24 22 24 26 30 29 19 16 20 30 34 29 36 46 35 23 22 33 18 36 14 23 30 28 34
14 15 14 15 13 15 13 13 14 15 16 16 16 20 20 18 15 20 24 22 17 16 15 17 18 18 13 24 28 25 34 40 28 20 24 25 24 23 23 11 13 17 14
17 16 16 14 15 15 16 16 16 17 17 19 17 22 22 21 21 29 26 28 26 24 20 13 13 11 20 22 21 23 32 35 23 22 20 21 19 18 21 19 8 21 9
Wind_Direction_850mb
195 209 217 207 190 196 224 242 284 263 268 268 268 217 224 195 166 131 25 4 249 268 296 310 294 300 307 295 285 293 296 292 299 292 282 284 292 291 292 290 292 287 292
203 201 204 202 211 221 244 277 260 254 242 227 224 163 103 88 78 300 289 255 269 300 302 297 296 294 293 298 295 291 294 300 298 306 304 296 297 294 291 292 287 286 281
181 183 190 209 233 246 267 237 250 232 161 120 103 95 113 166 330 276 237 260 318 326 308 302 295 295 292 292 290 294 289 290 292 298 300 296 293 292 289 294 294 285 286
162 199 226 182 97 140 187 195 139 119 100 123 110 110 87 343 244 258 242 294 292 293 294 299 304 312 304 297 295 299 294 296 293 292 294 295 299 296 299 304 289 288 274
134 138 110 103 107 111 119 112 100 102 102 86 81 58 335 316 307 277 253 294 313 299 299 313 309 303 304 306 298 296 295 303 307 304 296 294 298 299 293 299 302 295 284
85 77 93 112 116 118 119 119 123 113 115 113 63 335 323 302 298 305 299 299 300 299 307 309 307 309 303 296 294 292 301 319 314 308 308 303 293 292 292 293 289 289 293
89 92 72 75 93 106 119 156 260 293 293 272 298 307 292 300 300 297 297 295 301 303 311 310 303 302 307 302 303 303 310 307 305 304 306 303 302 311 314 297 291 288 286
95 162 194 27 19 357 338 329 143 84 191 309 300 294 296 301 301 301 301 304 307 313 320 317 306 311 301 294 289 299 305 305 294 303 294 301 307 307 307 307 295 296 303
111 110 107 79 64 51 57 75 90 66 318 298 305 315 327 316 315 316 318 327 322 313 313 320 317 313 300 300 306 303 305 307 314 302 302 295 300 292 297 300 312 306 301
120 119 112 77 89 97 82 72 77 329 316 319 328 330 321 329 334 348 354 355 332 315 330 325 321 328 307 305 311 312 301 318 321 312 306 306 301 305 297 303 304 300 310
131 116 99 105 159 201 237 333 1 1 332 339 331 337 341 358 356 15 12 3 357 350 341 340 334 331 320 323 314 308 310 314 313 320 319 308 305 317 311 315 304 293 305
87 107 124 123 101 63 54 48 355 350 341 19 46 16 337 347 33 21 10 359 348 347 344 332 322 319 332 321 323 319 301 304 306 314 319 326 319 316 309 312 308 297 302
145 100 101 82 37 56 8 340 315 338 341 326 327 321 37 57 35 11 357 343 340 358 344 343 354 334 329 349 350 333 325 331 333 329 329 316 315 312 308 306 308 302 305
232 101 85 46 30 343 353 25 17 17 16 65 63 84 84 70 16 16 24 26 13 7 25 33 346 336 336 347 347 3 349 339 332 321 322 316 309 313 314 317 311 305 306
118 88 39 354 314 4 351 9 335 332 353 137 106 90 90 11 6 20 22 12 19 4 16 2 6 6 5 4 360 346 346 351 347 341 331 338 336 325 311 316 316 307 302
3 337 329 354 5 33 348 34 6 3 44 132 141 138 298 336 5 15 354 354 1 20 19 3 6 6 359 1 358 360 5 357 358 351 344 339 338 326 318 318 320 308 304
346 347 9 32 57 36 19 5 35 64 98 87 54 284 291 302 344 12 2 5 7 38 25 7 4 10 2 355 3 350 353 357 353 358 350 351 339 331 334 327 322 301 289
51 55 69 64 48 76 61 50 57 36 343 291 263 283 297 315 341 343 25 25 17 19 12 10 2 2 357 6 0 352 352 350 358 0 354 351 356 354 356 2 355 323 200
75 70 72 76 53 41 40 50 35 11 30 342 252 298 335 311 320 316 342 351 357 4 8 9 7 4 6 353 358 2 350 353 1 3 360 1 1 5 9 22 32 69 118
90 90 73 65 51 49 31 27 359 357 4 333 325 321 336 332 314 325 335 355 354 356 357 0 7 7 2 2 3 358 351 355 3 4 6 12 5 18 29 32 39 56 91
83 70 46 37 31 2 358 335 346 344 18 30 29 21 11 9 345 11 12 355 359 349 345 350 1 9 4 357 360 1 344 352 4 8 14 20 12 29 33 35 37 43 67
87 93 61 44 24 21 32 20 54 37 41 32 35 26 6 359 16 16 14 27 7 343 334 342 342 346 358 3 358 354 342 358 4 16 20 25 32 43 45 45 45 57 67
80 75 60 38 35 45 71 74 62 47 42 27 19 16 8 4 1 341 335 328 339 341 351 358 352 352 357 2 344 340 348 1 3 13 25 24 31 44 42 45 59 65 69
71 73 78 78 52 71 59 49 38 31 32 31 8 18 12 359 337 347 342 329 316 315 317 312 330 353 5 348 332 354 3 3 4 17 17 28 29 25 37 63 82 77 74
82 76 74 61 66 54 51 52 46 32 31 22 25 15 9 7 350 329 323 330 339 337 322 334 328 332 342 330 352 7 9 11 16 28 24 32 29 23 50 68 48 24 77
77 80 76 74 67 63 60 53 53 46 36 34 27 19 17 14 5 12 12 9 11 11 4 345 10 342 328 346 13 16 13 20 38 34 22 41 44 11 24 31 347 28 134